Regional Weather Roundup
Issued by NWS Charleston, SC

Current Version | Previous Version | Graphics & Text | Print | Product List | Glossary On
Versions: 1 2 3 4 5 6 7 8 9 10 11 12 13 14 15 16 17 18 19 20 21 22 23 24 25 26 27 28 29 30 31 32 33 34 35 36 37 38 39 40 41 42 43 44 45 46 47 48 49 50
000
ASUS42 KCHS 210725
RWRCHS

REGIONAL WEATHER ROUNDUP
NATIONAL WEATHER SERVICE CHARLESTON SC
200 AM EST SUN DEC 21 2014

NOTE: "FAIR" INDICATES FEW OR NO CLOUDS BELOW 12,000 FEET WITH NO
SIGNIFICANT WEATHER AND/OR OBSTRUCTIONS TO VISIBILITY.

NOT ALL STATIONS ARE QUALITY CONTROLLED BY THE NATIONAL
WEATHER SERVICE. USE DATA WITH CAUTION...ESPECIALLY
DEWPOINT OBSERVATIONS.

SCZ027-030-031-034>040-042>050-210800-
...SOUTHEAST SOUTH CAROLINA...

CITY           SKY/WX    TMP DP  RH WIND       PRES   REMARKS
N CHARLESTON   CLOUDY    46  45  93 N7        30.19F
WATERFRONT PRK NOT AVBL
MOUNT PLEASANT DRIZZLE   46  46 100 N6        30.19S
PINOPOLIS        N/A     46  43  87 NE8       30.12F
MONCKS CORNER  LGT RAIN  46  43  87 NE5       30.21R
SUMMERVILLE    CLOUDY    45  45 100 N6        30.21S
BEAUFORT MCAS  CLOUDY    50  47  89 NE7       30.19R
BEAUFORT ARPT  CLOUDY    50  50 100 NE10      30.17S
HILTON HEAD IS CLOUDY    50  48  93 N10       30.19S
WALTERBORO     CLOUDY    46 N/A N/A N3        30.21R
ALLENDALE      LGT RAIN  46  45  93 CALM      30.19F

...SOUTHERN MIDLANDS AND PEE DEE...

CITY           SKY/WX    TMP DP  RH WIND       PRES   REMARKS
GEORGETOWN     NOT AVBL
KINGSTREE      NOT AVBL
ORANGEBURG     CLOUDY    45  41  86 NE6       30.21F
BARNWELL       CLOUDY    46  45  93 NE5       30.20F
AIKEN          CLOUDY    45  45 100 N7        30.25S
MANNING        NOT AVBL
COLUMBIA       CLOUDY    46  38  73 NE5       30.23S
SUMTER         CLOUDY    41  38  88 NE7       30.22F
FLORENCE       MOCLDY    38  36  92 N7        30.25S FOG     WCI  33
MYRTLE BEACH   CLOUDY    43  37  81 N10       30.22F
N MYRTLE BEACH CLOUDY    41  37  86 N8        30.22S

$$

GAZ063-065-086>088-099>101-113>116-118-119-134>141-150-210800-
...SOUTHEAST GEORGIA...

CITY           SKY/WX    TMP DP  RH WIND       PRES   REMARKS
SAVANNAH ARPT  CLOUDY    51  48  89 NE5       30.18S
HUNTER AAF     LGT RAIN  52  50  93 N9        30.16R
FORT STEWART   CLOUDY    52  50  93 NE7       30.16S
STATESBORO     CLOUDY    49  49 100 NE5       30.19R FOG
SYLVANIA       CLOUDY    48  48 100 NE5       30.21R FOG
CLAXTON        CLOUDY    50  50 100 NE5       30.18S

...CSRA...CENTRAL AND FAR SOUTHEAST GEORGIA...

CITY           SKY/WX    TMP DP  RH WIND       PRES   REMARKS
THOMSON        CLOUDY    49  49 100 CALM      30.25S
AUGUSTA-BUSH   CLOUDY    47  44  90 NE6       30.21F
AUGUSTA-DANIEL CLOUDY    48  45  89 N7        30.21S
SWAINSBORO     CLOUDY    52  52 100 NE3       30.19S
VIDALIA        CLOUDY    52  52 100 NE6       30.17S
EASTMAN        CLOUDY    53  53 100 NE3       30.20R
HAZLEHURST     CLOUDY    54  54 100 CALM      30.15R
ALMA           CLOUDY    53  51  93 E6        30.15F
WAYCROSS       LGT RAIN  57  55  94 NE6       30.14F
JESUP          CLOUDY    55  54  94 E6        30.15F
BAXLEY         CLOUDY    54  54 100 E3        30.15F FOG
BRUNSWICK      CLOUDY    54  52  94 NE8       30.15F
SAINT SIMONS   LGT RAIN  55  53  93 NE15G21   30.14F

$$

SCZ027-028-034-036>038-045-046-048>050-GAZ119-141-210800-
...LAKE AND SUPPLEMENTAL COASTAL OBSERVATIONS...

STATION/POSITION TIME  TEMP    WIND        PRES    WAVE   SWELL
                       AIR SEA DIR/SP/G            HT/PER HT/PER/DIR
                 (UTC) (F)     (DEG/KT/KT) (MB)    (FT/S) (FT/S/D)
UPR LAKE MARION  NOT AVBL
WINYAH BAY       0700   44     360/  5     1022.0S
LAKE MURRAY      0600   44      30/  2/  4 1023.4F
ACE BASIN NERRS  0700   48      20/  3     1022.0R
FORT PULASKI     0700   51 56  360/  8/ 10 1022.1R
SAPELO ISLAND    0700   53      30/  9     1021.0S

$$

ANZ835-935-AMZ111-154-330-350-352-354-370-450-454-472-210800-
...C-MAN AND BUOY OBSERVATIONS...

STATION/POSITION TIME  TEMP    WIND        PRES    WAVE   SWELL
                       AIR SEA DIR/SP/G            HT/PER HT/PER/DIR
                 (UTC) (F)     (DEG/KT/KT) (MB)    (FT/S) (FT/S/D)
BUOY 41004       0700   61 69   30/ 19/ 23 1020.2F   6/ 6
BUOY 41008       0700   56 59   30/ 19/ 23 1020.6R   5/ 6   2/ 90/10
FOLLY BEACH CMAN 0700   48      10/ 13/ 16 1022.3F
CAPERS NEARSHORE 0600   49      30/ 16/ 17   N/A
FRIPP NEARSHORE  NOT AVBL


STATION/POSITION TIME  TEMP    WIND        PRES    WAVE   SWELL
                       AIR SEA DIR/SP/G            HT/PER HT/PER/DIR
                 (UTC) (F)     (DEG/KT/KT) (MB)    (FT/S) (FT/S/D)
5E ST. MARYS GA  0600      61                N/A     5/ 5
FRYING PAN BUOY  0700   57 68   40/ 17/ 21 1022.1F   4/ 6   2/ 90/ 8
BUOY 41025       0700   48                 1024.0R   3/ 4
CAPE LOOKOUT NC  0700   44      10/ 12/ 15 1023.6F
BUOY 41002       0601   66 71   80/ 19/ 23 1019.9F   6/ 6   2/ 80/10
BUOY 41010       0700   74 76  180/ 10/ 14 1019.0F   2/11   2/100/11
ST AUGUSTINE FL  0700   61     360/ 19/ 21 1019.8F


$$



USA.gov is the U.S. government's official web portal to all federal, state and local government web resources and services.